CAPE
2 0 0 0 0 0 0 0 0 0 0 0 0 0 0 0 0 0 0 0 0 0 442 1268 1333 1855 2123 2152 2141 2030 1767 1223 694 702 989 360 536 469 374 568 633 750 968 982
2 0 0 0 0 0 0 0 0 0 0 0 0 0 0 0 0 0 0 0 0 0 84 1308 1467 1637 1862 1984 2026 1815 1498 943 857 841 1023 1288 775 989 807 1135 1052 734 867 1010
1 0 0 0 0 3 0 0 0 0 0 0 0 0 0 0 0 0 0 0 0 0 0 1040 1327 1529 1615 1756 1806 1465 1382 825 918 547 1081 1325 1482 1228 1177 1367 1441 1447 1215 983
0 0 4 11 0 0 0 0 0 0 0 0 0 0 0 0 0 0 0 0 0 0 0 444 1160 1302 1412 1466 1420 1401 1327 978 952 246 707 1303 1235 977 976 975 868 971 728 625
1 0 9 1 0 0 0 1 0 0 0 0 0 0 0 0 0 0 0 0 0 0 0 0 423 1097 1174 1053 1183 1255 1262 1124 684 355 227 490 1158 997 732 428 602 815 221 210
12 24 5 0 2 4 43 35 37 0 0 0 0 0 0 0 0 0 0 0 0 0 0 0 9 267 797 952 1082 1084 1196 1055 535 567 324 165 649 697 464 477 449 278 55 355
1 7 9 13 40 93 60 8 0 0 0 0 0 0 0 0 0 0 0 0 0 0 0 0 670 1055 436 427 756 630 1260 971 891 788 547 673 94 139 265 229 160 40 87 629
0 2 1 1 4 17 21 0 0 0 0 0 0 0 0 0 0 0 0 0 0 0 0 0 1576 2034 1815 1420 692 1074 1278 1293 1203 1331 1497 1152 340 275 293 33 18 90 291 641
0 0 0 1 4 0 24 40 7 56 4 0 0 0 0 0 0 0 0 0 0 0 0 1 1336 1707 2018 2035 1806 1770 1664 1605 1774 1523 1354 1156 785 514 77 31 132 320 464 575
0 0 0 0 23 6 26 7 19 90 0 0 0 0 0 0 0 0 0 0 0 0 0 476 1517 1369 1368 1818 2222 2209 2195 1700 1179 1292 1214 871 532 258 106 185 222 447 606 524
0 0 0 3 5 4 8 22 22 67 55 0 0 0 0 0 0 0 11 0 0 0 376 1550 1335 1325 1535 1943 2216 1977 1526 1186 1352 1286 837 824 688 565 567 489 542 684 740 536
0 0 0 0 0 1 18 10 23 5 19 21 0 0 56 185 57 529 384 63 0 383 1755 1905 1775 1553 1596 1646 1682 1480 1681 1369 1117 1017 800 1109 804 814 744 494 530 571 405 73
0 0 0 0 0 12 6 13 55 35 38 24 22 13 540 758 700 718 344 471 1229 1751 1598 1448 1559 1907 1630 1630 1568 1544 1141 1063 941 847 794 586 830 344 443 574 134 33 0 0
0 0 0 0 0 6 10 25 0 24 18 39 53 332 566 1064 930 1054 1175 1183 1420 1411 1069 1510 1738 1578 1484 1341 1170 1166 1121 955 795 859 670 592 337 40 116 1 1 0 0 0
0 0 0 0 0 0 1 0 19 1 0 78 77 247 608 864 1050 1023 978 961 921 673 1155 1436 1254 1179 1082 1164 969 1010 862 782 729 686 640 465 44 3 1 67 0 0 0 0
0 0 0 0 0 0 0 0 2 22 88 273 110 206 256 430 754 929 804 608 818 859 1089 1179 1196 1049 978 945 754 610 489 598 546 725 297 0 19 105 94 0 0 0 0 0
0 0 0 0 0 0 0 0 4 21 42 100 103 128 97 329 657 548 775 871 788 1396 957 1212 929 831 710 781 746 535 503 401 216 98 7 112 108 8 0 0 0 0 0 0
0 0 0 2 0 0 19 3 34 26 84 28 21 21 66 84 316 512 599 649 636 987 1149 1184 890 698 664 609 507 528 440 156 9 71 55 25 0 0 0 0 0 0 0 0
0 0 0 0 19 20 83 112 79 29 154 26 3 4 47 60 77 346 321 440 621 899 1030 978 692 571 500 484 420 156 73 41 64 50 15 0 0 0 0 0 0 0 0 0
0 1 0 26 33 65 164 153 191 102 6 5 0 0 0 29 0 257 505 567 740 1067 602 499 454 381 324 66 62 39 59 53 29 4 0 0 0 0 0 0 0 0 0 0
3 0 0 0 0 23 109 101 171 0 0 6 0 0 4 1 11 198 357 381 433 555 536 267 109 65 68 24 49 62 49 27 7 0 0 0 0 0 0 0 0 0 0 0
0 0 0 7 0 0 14 49 61 0 0 0 0 0 0 0 30 127 193 267 234 91 52 63 53 50 12 31 44 46 33 4 0 0 0 0 0 0 0 0 0 0 0 0
0 0 0 0 0 12 20 15 22 17 0 0 0 0 0 1 9 60 130 85 108 14 1 3 8 0 17 35 32 12 0 0 0 0 0 0 0 0 0 0 0 0 0 0
1 0 0 0 5 10 9 14 0 0 6 0 0 0 0 0 11 87 146 40 27 4 0 2 7 13 28 0 0 0 0 0 0 0 0 0 0 0 0 0 0 0 0 0
0 0 0 0 0 0 0 0 3 0 1 0 2 0 0 0 0 62 24 1 0 3 11 12 40 5 0 0 0 0 0 0 0 0 0 0 0 0 0 0 0 0 0 0
0 0 0 0 0 0 0 0 5 0 2 13 0 0 0 1 1 2 0 6 5 23 39 6 0 0 0 0 0 0 0 0 0 0 0 0 0 0 0 0 0 0 0 0
CIN
-18 -0 -0 -0 -0 -0 -0 -0 -0 -0 -0 -0 -0 -0 -0 -0 -0 -0 -0 -0 -0 -0 -357 -316 -250 -46 -38 -32 -31 -31 -28 -32 -44 -417 -339 -331 -165 -130 -270 -103 -53 -34 -7 -36
-2 -0 -0 -0 -0 -0 -0 -0 -0 -0 -0 -0 -0 -0 -0 -0 -0 -0 -0 -0 -0 -0 -42 -228 -205 -140 -92 -81 -37 -22 -32 -44 -45 -45 -313 -222 -198 -234 -205 -148 -123 -25 -22 -25
-1 -0 -0 -0 -0 -1 -0 -0 -0 -0 -0 -0 -0 -0 -0 -0 -0 -0 -0 -0 -0 -0 -0 -264 -220 -150 -116 -83 -63 -64 -39 -44 -50 -96 -265 -179 -92 -69 -74 -89 -65 -31 -24 -22
-0 -22 -5 -5 -0 -0 -0 -0 -0 -0 -0 -0 -0 -0 -0 -0 -0 -0 -0 -0 -0 -0 -0 -386 -237 -198 -132 -124 -97 -74 -50 -53 -77 -89 -268 -123 -99 -48 -47 -70 -71 -91 -98 -63
-1 -1 -13 -0 -2 -2 -0 -1 -0 -0 -0 -0 -0 -0 -0 -0 -0 -0 -0 -0 -0 -0 -0 -0 -439 -237 -206 -174 -121 -100 -80 -93 -111 -79 -143 -163 -45 -28 -18 -33 -143 -9 -101 -147
-7 -30 -12 -0 -2 -7 -19 -22 -6 -0 -0 -0 -0 -0 -0 -0 -0 -0 -0 -0 -0 -0 -0 -0 -480 -414 -286 -200 -142 -124 -86 -70 -83 -62 -348 -195 -113 -83 -90 -71 -51 -23 -0 -1
-20 -25 -26 -14 -7 -30 -22 -13 -0 -0 -0 -0 -0 -0 -0 -0 -0 -0 -0 -0 -0 -0 -0 -0 -468 -309 -437 -323 -199 -187 -62 -68 -62 -39 -36 -54 -62 -149 -67 -1 -0 -2 -0 -1
-0 -0 -0 -3 -14 -27 -60 -7 -0 -0 -0 -0 -0 -0 -0 -0 -0 -0 -0 -0 -0 -0 -0 -0 -305 -200 -224 -273 -398 -65 -44 -76 -34 -36 -44 -55 -146 -86 -39 -11 -25 -1 -0 -15
-0 -0 -0 -1 -10 -0 -13 -7 -14 -16 -2 -0 -0 -0 -0 -0 -0 -0 -0 -0 -0 -0 -0 -46 -340 -254 -203 -200 -185 -42 -38 -43 -29 -41 -39 -25 -23 -19 -9 -24 -7 -8 -52 -45
-0 -0 -0 -18 -1 -4 -15 -13 -7 -2 -0 -0 -0 -0 -0 -0 -0 -0 -0 -0 -0 -0 -0 -495 -296 -300 -246 -163 -86 -68 -50 -37 -82 -59 -38 -45 -49 -48 -111 -19 -47 -51 -28 -17
-0 -0 -0 -5 -0 -3 -3 -14 -30 -41 -20 -0 -0 -0 -0 -0 -0 -0 -289 -0 -0 -0 -509 -236 -277 -233 -194 -99 -66 -71 -36 -110 -62 -40 -67 -57 -29 -7 -0 -16 -21 -5 -1 -0
-0 -0 -0 -0 -0 -0 -6 -46 -33 -1 -5 -18 -0 -0 -192 -221 -345 -213 -255 -192 -0 -443 -157 -153 -143 -142 -117 -86 -41 -100 -73 -73 -84 -48 -29 -4 -25 -12 -14 -38 -13 -1 -21 -101
-0 -0 -0 -0 -0 -7 -1 -21 -23 -53 -54 -14 -26 -77 -47 -106 -154 -173 -374 -359 -169 -85 -119 -120 -95 -71 -95 -93 -86 -61 -95 -81 -61 -47 -28 -34 -12 -39 -1 -0 -34 -49 -0 -0
-0 -0 -0 -0 -7 -6 -0 -19 -0 -27 -54 -14 -17 -6 -6 -25 -68 -84 -89 -88 -80 -114 -140 -70 -66 -90 -91 -89 -68 -75 -82 -78 -84 -50 -34 -27 -41 -96 -73 -19 -2 -0 -0 -0
-0 -0 -0 -0 -0 -2 -0 -0 -13 -2 -0 -5 -22 -3 -0 -2 -1 -16 -53 -60 -50 -108 -103 -88 -123 -103 -119 -84 -102 -87 -84 -75 -69 -59 -38 -24 -93 -1 -1 -42 -0 -0 -0 -0
-0 -0 -0 -0 -0 -0 -0 -0 -32 -81 -10 -18 -13 -0 -10 -26 -0 -4 -38 -43 -50 -75 -98 -99 -95 -104 -107 -90 -98 -108 -111 -67 -61 -30 -50 -0 -95 -52 -49 -0 -0 -0 -0 -0
-0 -0 -0 -0 -0 -1 -0 -0 -23 -85 -40 -65 -5 -1 -14 -0 -0 -9 -0 -7 -47 -20 -103 -78 -104 -111 -119 -95 -92 -95 -82 -76 -93 -92 -76 -69 -59 -58 -0 -0 -0 -0 -0 -0
-0 -0 -0 -10 -0 -2 -45 -40 -32 -70 -105 -152 -3 -18 -2 -3 -0 -0 -0 -17 -47 -55 -67 -63 -90 -103 -91 -87 -92 -78 -55 -81 -162 -101 -104 -100 -0 -0 -0 -0 -0 -0 -0 -0
-0 -0 -0 -0 -0 -34 -43 -64 -33 -76 -14 -129 -18 -38 -0 -10 -24 -0 -8 -11 -17 -27 -43 -62 -92 -99 -94 -81 -67 -59 -30 -119 -93 -104 -113 -0 -0 -0 -0 -0 -0 -0 -0 -0
-0 -0 -1 -2 -10 -7 -17 -90 -60 -64 -10 -3 -0 -0 -0 -22 -0 -0 -0 -0 -0 -1 -41 -87 -81 -75 -59 -64 -25 -130 -99 -98 -115 -100 -0 -0 -0 -0 -0 -0 -0 -0 -0 -0
-3 -0 -0 -0 -0 -7 -0 -47 -51 -7 -0 -47 -0 -0 -15 -0 -0 -6 -0 -0 -0 -8 -17 -45 -76 -54 -19 -94 -98 -92 -98 -110 -115 -0 -0 -0 -0 -0 -0 -0 -0 -0 -0 -0
-0 -0 -0 -29 -0 -0 -4 -44 -59 -0 -0 -0 -0 -0 -0 -0 -14 -0 -0 -0 -0 -25 -47 -58 -48 -28 -47 -96 -84 -75 -86 -63 -0 -0 -0 -0 -0 -0 -0 -0 -0 -0 -0 -0
-0 -0 -0 -0 -0 -3 -4 -25 -49 -11 -0 -0 -0 -0 -0 -3 -0 -4 -4 -5 -20 -59 -2 -46 -25 -0 -68 -64 -80 -87 -0 -0 -0 -0 -0 -0 -0 -0 -0 -0 -0 -0 -0 -0
-1 -2 -0 -0 -1 -2 -2 -11 -0 -0 -24 -0 -0 -0 -0 -0 -7 -0 -1 -14 -23 -80 -0 -0 -1 -28 -5 -0 -0 -0 -0 -0 -0 -0 -0 -0 -0 -0 -0 -0 -0 -0 -0 -0
-0 -0 -0 -0 -0 -0 -0 -0 -0 -0 -6 -0 -0 -0 -0 -0 -0 -1 -3 -0 -0 -1 -2 -5 -10 -2 -0 -0 -0 -0 -0 -0 -0 -0 -0 -0 -0 -0 -0 -0 -0 -0 -0 -0
-0 -0 -0 -0 -0 -0 -0 -0 -0 -0 -1 -0 -0 -0 -0 -0 -1 -2 -0 -0 -4 -12 -12 -8 -0 -0 -0 -0 -0 -0 -0 -0 -0 -0 -0 -0 -0 -0 -0 -0 -0 -0 -0 -0
Wind_Speed
nan nan nan nan nan nan nan nan nan nan nan nan nan nan nan nan nan nan nan nan nan nan 54 55 53 49 44 34 42 35 28 27 28 30 29 26 25 29 28 41 33 44 45 51
nan nan nan nan nan nan nan nan nan nan nan nan nan nan nan nan nan nan nan nan nan nan nan 54 52 49 42 40 38 33 30 25 21 26 28 30 28 32 35 34 30 40 45 47
nan nan nan nan nan nan nan nan nan nan nan nan nan nan nan nan nan nan nan nan nan nan nan 46 42 42 42 40 37 35 31 28 22 27 31 30 34 34 39 32 35 43 45 56
nan nan nan nan nan nan nan nan nan nan nan nan nan nan nan nan nan nan nan nan nan nan nan 36 32 26 28 25 29 30 33 30 25 30 30 29 30 34 31 30 37 43 47 59
nan nan nan nan nan nan nan nan nan nan nan nan nan nan nan nan nan nan nan nan nan nan nan nan 23 20 19 24 22 21 25 22 29 31 28 29 36 39 42 42 29 35 45 42
nan nan nan nan nan nan nan nan nan nan nan nan nan nan nan nan nan nan nan nan nan nan nan nan nan 27 22 21 17 13 13 15 28 27 28 26 27 39 40 38 39 47 nan 24
nan nan nan nan nan nan nan nan nan nan nan nan nan nan nan nan nan nan nan nan nan nan nan nan 34 31 28 23 19 11 13 27 28 22 20 18 nan 29 31 37 36 nan nan 14
nan nan nan nan nan nan nan nan nan nan nan nan nan nan nan nan nan nan nan nan nan nan nan nan 35 34 29 26 20 12 24 32 31 26 25 23 22 25 25 nan nan nan 20 18
nan nan nan nan nan nan nan nan nan nan nan nan nan nan nan nan nan nan nan nan nan nan nan nan 40 35 32 30 25 25 35 33 31 33 36 32 28 32 nan nan 26 20 19 34
nan nan nan nan nan nan nan nan nan nan nan nan nan nan nan nan nan nan nan nan nan nan nan 43 44 46 43 40 38 37 41 42 39 36 32 33 32 39 42 29 28 30 34 38
nan nan nan nan nan nan nan nan nan nan nan nan nan nan nan nan nan nan nan nan nan nan 45 45 47 46 47 46 44 43 46 45 40 38 36 35 39 40 40 36 36 36 39 42
nan nan nan nan nan nan nan nan nan nan nan nan nan nan nan 47 nan 45 47 nan nan 48 45 45 47 48 50 48 44 42 41 46 43 41 39 41 41 42 41 41 38 39 41 nan
nan nan nan nan nan nan nan nan nan nan nan nan nan nan 57 48 48 51 43 46 49 50 51 48 45 48 47 44 45 43 44 47 45 44 44 43 42 39 41 43 41 nan nan nan
nan nan nan nan nan nan nan nan nan nan nan nan nan 63 63 52 50 52 52 52 48 48 52 53 51 46 45 46 45 44 46 45 46 46 46 43 41 nan 42 nan nan nan nan nan
nan nan nan nan nan nan nan nan nan nan nan nan nan 58 61 57 51 48 51 51 51 48 42 42 47 49 50 49 46 44 44 46 44 49 46 42 nan nan nan nan nan nan nan nan
nan nan nan nan nan nan nan nan nan nan nan 39 50 55 60 57 52 52 48 44 40 36 39 41 46 45 42 40 41 41 40 43 43 44 44 nan nan 40 nan nan nan nan nan nan
nan nan nan nan nan nan nan nan nan nan nan 27 47 52 nan 60 52 49 46 43 39 38 39 40 36 28 27 31 36 40 42 44 47 nan nan 42 38 nan nan nan nan nan nan nan
nan nan nan nan nan nan nan nan nan nan nan nan nan nan nan nan 60 52 49 46 39 39 37 34 28 27 25 26 32 37 40 43 nan nan nan nan nan nan nan nan nan nan nan nan
nan nan nan nan nan nan nan 16 nan nan 40 nan nan nan nan nan nan 67 56 45 41 41 35 32 29 30 31 31 29 35 nan nan nan nan nan nan nan nan nan nan nan nan nan nan
nan nan nan nan nan nan 32 17 20 29 nan nan nan nan nan nan nan 52 47 43 43 40 32 32 34 38 39 nan nan nan nan nan nan nan nan nan nan nan nan nan nan nan nan nan
nan nan nan nan nan nan 25 41 38 nan nan nan nan nan nan nan nan 36 41 45 43 35 36 39 39 nan nan nan nan nan nan nan nan nan nan nan nan nan nan nan nan nan nan nan
nan nan nan nan nan nan nan nan nan nan nan nan nan nan nan nan nan 40 49 43 40 nan nan nan nan nan nan nan nan nan nan nan nan nan nan nan nan nan nan nan nan nan nan nan
nan nan nan nan nan nan nan nan nan nan nan nan nan nan nan nan nan nan 51 nan 40 nan nan nan nan nan nan nan nan nan nan nan nan nan nan nan nan nan nan nan nan nan nan nan
nan nan nan nan nan nan nan nan nan nan nan nan nan nan nan nan nan nan 47 nan nan nan nan nan nan nan nan nan nan nan nan nan nan nan nan nan nan nan nan nan nan nan nan nan
nan nan nan nan nan nan nan nan nan nan nan nan nan nan nan nan nan nan nan nan nan nan nan nan nan nan nan nan nan nan nan nan nan nan nan nan nan nan nan nan nan nan nan nan
nan nan nan nan nan nan nan nan nan nan nan nan nan nan nan nan nan nan nan nan nan nan nan nan nan nan nan nan nan nan nan nan nan nan nan nan nan nan nan nan nan nan nan nan
Wind_Direction
nan nan nan nan nan nan nan nan nan nan nan nan nan nan nan nan nan nan nan nan nan nan 240 242 248 259 265 269 278 280 263 249 248 252 258 264 262 258 265 257 259 252 255 263
nan nan nan nan nan nan nan nan nan nan nan nan nan nan nan nan nan nan nan nan nan nan nan 249 252 263 277 286 275 266 264 254 239 238 239 241 260 257 266 260 258 256 258 258
nan nan nan nan nan nan nan nan nan nan nan nan nan nan nan nan nan nan nan nan nan nan nan 254 269 269 270 267 260 260 263 255 234 233 236 237 245 261 269 258 261 252 252 251
nan nan nan nan nan nan nan nan nan nan nan nan nan nan nan nan nan nan nan nan nan nan nan 251 255 255 254 256 251 251 251 248 238 243 244 247 258 272 262 257 264 267 262 251
nan nan nan nan nan nan nan nan nan nan nan nan nan nan nan nan nan nan nan nan nan nan nan nan 250 252 255 254 257 250 247 248 247 247 247 251 259 257 242 240 261 250 251 252
nan nan nan nan nan nan nan nan nan nan nan nan nan nan nan nan nan nan nan nan nan nan nan nan nan 252 248 243 246 251 252 237 242 246 248 250 261 257 243 237 248 248 nan 217
nan nan nan nan nan nan nan nan nan nan nan nan nan nan nan nan nan nan nan nan nan nan nan nan 241 241 246 253 257 245 233 221 230 243 244 254 nan 233 236 243 247 nan nan 337
nan nan nan nan nan nan nan nan nan nan nan nan nan nan nan nan nan nan nan nan nan nan nan nan 241 245 253 259 259 256 233 235 244 243 243 244 246 224 243 nan nan nan 315 293
nan nan nan nan nan nan nan nan nan nan nan nan nan nan nan nan nan nan nan nan nan nan nan nan 227 235 242 244 245 239 244 244 244 241 239 234 236 254 nan nan 263 287 294 276
nan nan nan nan nan nan nan nan nan nan nan nan nan nan nan nan nan nan nan nan nan nan nan 213 223 229 229 233 237 238 244 244 245 245 243 245 246 258 266 281 275 272 269 277
nan nan nan nan nan nan nan nan nan nan nan nan nan nan nan nan nan nan nan nan nan nan 218 219 224 228 234 235 234 237 242 249 248 248 248 250 252 256 263 273 278 278 276 274
nan nan nan nan nan nan nan nan nan nan nan nan nan nan nan 192 nan 192 191 nan nan 221 220 224 228 231 234 232 233 235 241 245 248 249 250 252 258 261 268 274 275 270 270 nan
nan nan nan nan nan nan nan nan nan nan nan nan nan nan 186 196 195 198 197 212 222 227 225 222 225 229 233 233 233 234 237 242 248 251 249 249 255 259 263 266 270 nan nan nan
nan nan nan nan nan nan nan nan nan nan nan nan nan 183 182 192 199 203 204 207 218 223 225 224 226 228 230 232 233 236 236 241 247 249 250 251 256 nan 262 nan nan nan nan nan
nan nan nan nan nan nan nan nan nan nan nan nan nan 183 175 186 195 201 206 210 209 214 217 223 229 231 233 234 234 235 237 240 245 248 249 254 nan nan nan nan nan nan nan nan
nan nan nan nan nan nan nan nan nan nan nan 177 189 185 173 185 183 198 201 206 201 206 218 226 230 236 241 239 238 236 239 240 243 246 250 nan nan 258 nan nan nan nan nan nan
nan nan nan nan nan nan nan nan nan nan nan 178 182 181 nan 179 186 195 201 207 209 212 226 232 228 229 235 232 234 236 239 241 242 nan nan 249 253 nan nan nan nan nan nan nan
nan nan nan nan nan nan nan nan nan nan nan nan nan nan nan nan 186 200 208 216 215 217 222 223 230 237 241 239 238 237 236 239 nan nan nan nan nan nan nan nan nan nan nan nan
nan nan nan nan nan nan nan 188 nan nan 198 nan nan nan nan nan nan 193 196 205 212 213 218 229 234 240 240 242 239 236 nan nan nan nan nan nan nan nan nan nan nan nan nan nan
nan nan nan nan nan nan 123 159 190 177 nan nan nan nan nan nan nan 178 195 206 209 209 218 232 238 239 240 nan nan nan nan nan nan nan nan nan nan nan nan nan nan nan nan nan
nan nan nan nan nan nan 136 144 162 nan nan nan nan nan nan nan nan 203 206 205 214 209 220 226 231 nan nan nan nan nan nan nan nan nan nan nan nan nan nan nan nan nan nan nan
nan nan nan nan nan nan nan nan nan nan nan nan nan nan nan nan nan 208 213 215 215 nan nan nan nan nan nan nan nan nan nan nan nan nan nan nan nan nan nan nan nan nan nan nan
nan nan nan nan nan nan nan nan nan nan nan nan nan nan nan nan nan nan 214 nan 221 nan nan nan nan nan nan nan nan nan nan nan nan nan nan nan nan nan nan nan nan nan nan nan
nan nan nan nan nan nan nan nan nan nan nan nan nan nan nan nan nan nan 216 nan nan nan nan nan nan nan nan nan nan nan nan nan nan nan nan nan nan nan nan nan nan nan nan nan
nan nan nan nan nan nan nan nan nan nan nan nan nan nan nan nan nan nan nan nan nan nan nan nan nan nan nan nan nan nan nan nan nan nan nan nan nan nan nan nan nan nan nan nan
nan nan nan nan nan nan nan nan nan nan nan nan nan nan nan nan nan nan nan nan nan nan nan nan nan nan nan nan nan nan nan nan nan nan nan nan nan nan nan nan nan nan nan nan